Tracking 29892 objects as of 21-Nov-2024
HD Live streaming from Space Station
objects crossing your sky now

DELTA 1 DEB

Track DELTA 1 DEB now!
10-day predictions


NORAD ID: 3811
Int'l Code: 1968-114C
Perigee: 1,257.0 km
Apogee: 1,469.6 km
Inclination: 101.9 °
Period: 112.8 minutes
Semi major axis: 7734 km
RCS: 0.071 m2 (small)
Launch date: December 15, 1968
Source: United States (US)
Launch site: AIR FORCE WESTERN TEST RANGE (AFWTR)

Note: This is SATELLITE DEBRIS
Your satellite tracking list
Your tracking list is empty




NASA's NSSDC Master Catalog

Two Line Element Set (TLE):
1 03811U 68114C   24323.99945994 -.00000023  00000-0  11899-3 0  9992
2 03811 101.8837 227.6780 0137501 233.7213 139.1398 12.76354474604842
Source of the keplerian elements: AFSPC